Theta_e
307 306 307 307 308 308 306 304 301 298 293 291 289 287 287 288 289 291 290 290 289 288 288 287 286 286 285 285 284 284 284 285 283 280 283 284 282 282 282 282 283 282 282
306 305 305 305 304 303 302 300 296 292 289 288 286 285 285 286 287 289 288 288 287 285 285 285 284 284 283 283 283 283 282 283 283 280 280 281 280 282 281 281 281 281 281
304 303 303 302 302 300 299 297 292 289 287 286 285 284 284 284 285 284 285 285 285 285 284 283 283 283 281 282 282 281 281 280 280 281 280 280 280 281 280 281 281 281 282
302 302 301 301 300 299 297 293 290 288 286 285 285 284 283 283 284 283 283 283 283 283 283 283 283 282 281 281 280 280 280 279 279 279 280 279 279 280 279 278 280 281 280
301 300 300 300 299 297 293 290 288 286 285 284 283 282 281 282 282 282 282 282 282 282 282 282 283 283 283 282 280 280 279 280 279 279 279 278 278 278 278 280 278 279 280
299 298 298 297 293 292 290 287 286 284 284 283 282 281 280 281 285 285 283 282 282 282 281 281 282 281 282 283 283 283 282 281 280 280 279 278 279 279 279 279 278 277 275
295 294 293 293 291 290 288 286 285 284 283 282 282 281 281 281 286 286 285 282 281 281 281 280 280 280 281 281 283 283 282 283 283 281 279 279 279 280 280 278 278 277 276
291 291 291 290 289 288 287 286 285 284 283 282 282 282 281 281 286 286 284 282 282 281 281 280 281 280 279 280 281 281 281 281 282 282 281 281 282 281 280 279 277 277 279
289 290 289 288 287 287 285 285 285 284 282 282 282 281 281 281 286 286 283 281 281 280 280 282 283 280 282 282 279 278 279 279 280 282 283 283 284 284 284 282 279 278 275
288 289 289 287 286 285 285 284 284 284 282 282 281 281 281 282 286 286 283 282 280 280 280 282 282 281 283 284 280 279 278 279 279 279 279 280 281 281 282 280 279 276 275
287 287 286 286 285 285 285 284 283 283 282 281 280 280 281 284 285 286 284 282 281 281 280 280 280 284 284 284 283 281 281 282 281 280 279 279 279 279 278 278 278 276 272
285 285 284 284 285 285 283 283 282 281 279 279 279 279 280 282 285 287 285 284 285 283 282 281 281 284 285 284 284 284 284 284 282 281 279 277 277 277 276 275 275 274 274
282 281 282 283 284 284 283 281 281 281 280 280 280 279 279 281 284 287 287 285 285 284 285 284 284 285 285 286 286 285 281 280 278 276 276 275 274 274 274 272 273 272 272
281 282 282 282 282 283 283 283 282 281 281 280 280 280 279 279 281 284 285 286 284 286 285 284 284 284 284 281 278 278 277 276 273 272 272 272 272 270 268 269 267 267 266
282 282 283 283 283 282 282 283 282 283 283 281 281 281 280 278 279 283 285 285 285 285 283 282 281 278 275 275 274 274 272 271 270 270 269 268 268 268 267 267 266 264 262
282 282 282 282 282 281 281 281 284 284 284 285 285 284 283 284 284 283 285 286 287 285 279 277 276 275 275 273 272 270 270 266 268 268 266 266 265 265 264 264 265 261 260
283 283 283 281 281 280 280 280 279 282 284 284 284 285 285 284 285 284 284 285 286 285 279 278 276 275 275 273 271 269 267 267 265 266 265 264 264 263 262 261 262 262 259
284 283 283 282 282 281 281 282 281 279 278 279 282 283 284 283 284 285 285 285 282 283 277 276 275 274 272 270 268 266 265 264 264 264 263 262 260 260 259 259 260 257 257
281 282 283 282 282 282 282 281 281 281 279 278 277 278 280 283 284 285 286 278 275 273 273 273 272 270 268 266 265 265 264 263 262 261 260 258 258 257 256 257 258 258 257
275 276 279 279 279 279 279 279 278 278 276 276 277 276 273 276 273 270 271 273 272 272 269 268 266 265 264 264 263 262 261 259 258 258 258 258 257 257 256 255 256 256 256
273 273 274 276 276 276 276 276 276 275 275 275 275 272 273 274 272 269 267 267 267 266 265 264 262 262 262 262 261 260 260 260 259 258 259 258 256 255 255 257 256 255 255
272 272 273 272 272 273 274 274 274 274 273 273 268 269 272 270 268 266 265 263 262 262 262 262 262 261 261 260 260 260 259 258 258 258 258 256 255 254 254 255 254 256 255
270 269 268 267 266 266 268 269 270 270 269 269 267 267 268 266 265 264 263 261 259 259 259 260 260 258 258 258 260 260 259 258 259 258 255 255 255 254 254 254 254 253 253
268 267 266 266 266 267 267 266 265 264 266 266 265 265 265 264 263 261 260 259 258 258 257 255 256 256 256 256 257 256 256 256 257 256 253 254 253 253 252 252 252 252 253
265 265 264 265 264 264 265 264 264 264 264 263 263 263 263 263 262 261 261 259 257 258 257 256 256 255 255 255 255 256 256 258 255 255 254 253 251 250 249 249 249 250 250
262 262 262 262 262 262 262 262 262 262 261 261 261 260 260 259 259 259 258 257 257 257 257 257 256 255 255 255 255 256 257 258 255 256 254 254 253 253 249 249 248 248 248
Wind_Speed
10 10 10 10 10 10 8 8 9 8 9 9 10 9 10 10 9 10 9 11 12 10 9 10 10 11 7 6 5 4 4 3 5 2 2 4 4 4 3 4 4 4 4
9 10 10 10 9 9 8 8 7 7 6 7 7 7 7 9 10 11 11 12 14 15 12 12 11 8 10 8 6 6 6 3 3 5 3 3 4 3 1 4 3 3 4
8 9 10 10 10 10 9 7 8 7 7 7 8 9 9 9 7 5 6 6 8 10 15 15 13 12 9 6 6 6 5 3 3 4 3 2 1 1 3 4 4 5 5
9 10 11 11 11 10 9 9 9 9 9 8 8 7 7 8 8 9 8 7 8 7 4 7 10 11 13 11 7 7 6 4 4 3 1 2 3 2 2 4 4 2 5
10 11 12 9 8 8 7 8 8 8 7 8 8 8 8 8 7 9 9 10 10 10 8 6 6 7 11 10 6 7 7 4 4 3 2 2 3 2 3 1 4 5 6
10 11 9 7 7 7 8 9 9 8 8 9 9 9 10 7 16 17 11 9 10 11 10 8 8 9 10 12 10 11 8 6 6 4 3 4 4 3 2 3 4 5 5
9 8 7 7 9 9 8 8 9 9 8 9 8 9 9 8 21 20 17 8 9 8 9 10 8 5 6 6 7 6 6 8 5 4 3 4 3 3 3 5 5 6 8
7 6 6 8 8 8 9 9 8 8 9 8 9 9 8 8 20 20 18 10 8 9 10 11 10 8 6 7 7 6 5 5 5 4 6 6 5 3 3 4 7 9 9
7 7 7 8 8 8 9 8 7 8 7 8 8 9 10 9 22 21 15 8 8 8 8 8 8 8 12 13 7 7 5 4 4 10 13 14 14 15 12 6 6 7 9
5 5 7 7 8 8 8 8 7 6 7 6 8 9 11 12 24 24 16 9 9 7 7 7 11 9 16 16 9 7 5 5 6 4 3 7 9 6 9 5 4 6 7
3 4 4 6 7 7 7 6 8 7 8 7 8 8 10 13 17 25 20 10 10 9 8 7 5 15 15 16 15 6 6 5 7 6 6 6 4 1 1 1 3 4 6
5 4 4 5 4 6 8 8 8 8 8 7 7 6 5 7 14 23 23 15 16 11 9 7 7 16 17 17 14 13 13 11 5 3 1 0 1 0 1 2 3 4 4
7 6 7 6 6 7 8 8 7 8 7 7 6 5 5 5 6 16 20 18 16 7 6 9 13 15 18 15 15 9 6 3 3 2 2 1 1 2 3 2 2 2 3
7 7 6 7 7 6 6 6 6 6 6 6 6 6 6 5 5 6 8 11 14 10 9 6 8 9 8 8 8 6 4 3 2 2 1 1 2 1 1 1 1 2 3
7 5 6 5 6 7 5 5 5 5 6 7 6 7 8 8 9 13 12 9 8 9 8 6 5 5 5 4 4 4 4 3 3 2 1 1 1 1 1 1 1 2 2
7 5 4 5 5 5 6 5 4 5 9 9 10 9 6 9 16 21 21 21 18 19 5 5 6 7 7 6 6 5 4 3 2 2 2 1 1 0 1 1 1 1 2
7 7 4 5 5 6 5 5 5 2 7 6 7 11 11 10 16 21 22 20 19 16 5 6 7 7 7 6 6 5 5 3 4 3 2 2 2 1 1 1 1 1 1
4 8 6 3 4 4 4 4 4 5 4 3 4 3 6 8 10 16 19 18 9 12 6 5 6 6 6 6 6 5 5 6 5 4 3 3 2 2 2 2 1 1 1
3 4 4 4 3 4 4 4 4 4 4 3 3 4 2 8 10 11 14 5 6 4 4 3 3 4 5 5 5 5 6 6 5 4 3 3 3 3 2 1 2 2 3
4 7 5 4 3 3 3 4 4 4 4 4 3 4 1 3 4 4 5 5 4 4 3 4 3 3 4 5 5 5 4 4 4 3 3 3 3 3 3 3 2 2 3
3 3 5 3 3 3 3 3 3 3 3 3 3 3 3 2 5 4 3 3 3 3 3 3 3 3 4 4 4 5 5 5 5 4 4 4 3 3 3 2 2 3 3
4 4 3 4 3 3 3 3 3 2 3 3 3 1 7 3 3 3 3 2 2 2 2 3 4 4 5 5 5 5 5 5 5 5 5 3 3 3 3 2 2 3 3
4 5 5 5 5 4 4 3 2 2 3 3 3 3 3 2 2 3 2 3 2 3 2 2 4 3 3 3 4 4 6 6 5 5 4 4 4 3 3 3 3 3 3
5 6 5 5 4 3 3 2 3 2 2 3 2 1 1 2 1 1 2 2 2 2 2 2 1 4 4 5 4 2 2 3 3 4 5 4 4 4 2 2 3 3 3
7 7 6 5 4 3 3 4 4 3 3 3 2 2 1 1 2 2 2 2 2 3 3 3 3 5 6 7 6 7 7 10 6 6 4 5 4 5 3 3 3 3 4
6 6 5 4 4 4 4 3 3 3 3 2 1 1 0 1 1 1 2 2 3 3 3 4 5 7 7 7 8 9 9 10 9 10 6 6 6 5 3 4 6 3 4
Wind_Direction
209 216 217 218 212 217 212 209 205 184 176 172 171 170 168 169 171 177 178 163 162 164 155 156 147 140 135 125 118 117 107 86 120 99 115 139 178 213 202 209 258 270 295
216 217 219 219 213 215 205 204 180 177 155 155 153 159 163 172 173 181 180 173 167 159 159 149 146 138 130 136 136 130 126 131 128 133 137 161 191 203 262 276 268 252 259
213 217 218 215 210 210 208 194 177 154 155 156 162 172 171 169 154 148 156 167 166 166 157 153 149 142 135 135 128 134 130 118 89 98 137 122 220 186 240 263 250 248 249
213 220 221 216 212 207 200 181 171 160 162 168 174 172 173 166 167 155 146 142 137 135 130 137 145 145 142 143 142 138 132 126 112 98 115 185 194 171 188 243 257 257 280
214 218 224 218 207 200 180 172 164 161 164 160 154 153 155 164 171 155 154 150 143 136 129 122 125 121 129 140 143 144 139 146 125 149 169 217 227 217 222 227 275 289 293
210 217 216 203 185 180 170 169 162 159 158 159 167 165 162 165 171 163 141 137 137 144 144 125 121 127 139 149 142 157 171 142 168 176 190 215 235 234 231 254 275 296 304
207 209 199 185 179 178 168 166 170 169 160 172 169 164 169 159 170 169 155 142 136 150 146 139 135 121 123 132 152 174 176 196 191 178 200 222 261 242 260 276 274 274 273
198 196 188 176 177 170 166 178 170 167 171 172 170 166 158 159 170 176 151 143 144 159 164 147 141 144 157 138 155 191 193 199 209 215 224 236 251 289 263 256 266 270 272
198 195 186 177 175 171 172 174 171 161 161 166 160 158 162 162 171 169 157 143 145 149 138 139 138 145 175 177 177 182 193 205 226 247 252 263 269 273 273 279 274 289 291
201 193 171 165 166 172 167 166 160 158 156 151 146 161 159 164 168 171 162 148 152 147 147 155 154 170 175 189 196 175 198 208 208 209 236 262 266 275 290 296 302 290 299
114 126 140 154 162 157 145 139 140 148 142 146 151 154 160 161 173 176 169 163 161 168 172 172 184 192 190 199 201 187 206 168 215 219 225 239 228 197 193 283 308 310 307
119 111 108 116 127 134 140 138 141 139 136 145 151 154 162 175 187 183 179 178 179 176 175 176 189 199 206 206 205 214 218 224 216 214 170 127 257 178 63 26 335 308 301
108 115 124 118 129 137 138 144 147 151 152 160 166 158 162 171 186 186 184 186 194 185 167 181 175 202 211 214 210 209 130 128 140 176 230 243 54 44 356 330 329 308 287
117 122 124 129 131 135 139 155 152 161 154 158 158 162 154 164 172 189 193 186 194 192 161 161 169 175 195 137 113 117 116 125 126 157 176 62 54 37 19 16 339 331 315
114 127 141 133 146 149 148 158 173 168 169 163 170 167 165 181 189 185 186 190 184 183 138 143 162 138 144 145 126 134 132 147 166 140 132 111 40 14 327 39 348 308 293
126 140 141 153 142 135 142 132 128 163 179 179 178 176 181 185 180 191 196 197 187 156 138 164 174 168 177 170 163 157 151 161 142 136 140 151 177 230 43 323 275 304 298
145 134 138 140 136 140 139 132 140 141 175 178 197 206 196 191 187 193 198 197 198 187 198 188 182 179 181 167 162 158 163 150 122 161 162 159 158 186 217 255 269 294 307
114 120 133 136 142 133 134 131 131 149 141 108 57 109 174 201 192 191 197 200 202 200 183 184 175 169 161 156 155 158 150 152 177 171 167 152 155 205 231 247 283 294 303
95 107 105 117 123 123 120 133 138 145 123 122 90 70 272 181 183 186 167 139 152 134 140 150 130 132 142 150 160 164 162 166 163 160 158 153 173 187 217 238 260 271 267
53 61 80 101 121 115 107 112 113 115 129 155 161 115 89 79 88 66 63 87 88 109 127 132 137 147 156 159 156 153 153 139 147 164 174 165 177 183 187 198 209 243 246
64 58 72 87 96 94 110 122 117 138 144 147 133 83 119 130 117 124 115 110 119 125 139 139 148 154 153 155 155 161 167 171 177 176 174 173 169 177 181 223 222 225 232
71 80 64 74 85 88 87 77 89 122 131 152 99 185 125 73 97 106 121 116 103 98 113 142 162 166 168 168 168 168 173 181 170 180 186 170 167 172 172 192 207 235 242
62 74 74 63 68 84 67 61 88 141 149 136 141 147 136 146 126 137 136 126 134 144 139 158 156 151 145 161 171 178 176 184 185 170 173 174 187 180 168 185 193 206 231
71 72 66 54 43 71 91 100 89 46 76 98 115 111 113 82 98 120 106 120 135 155 141 165 189 168 169 180 184 179 171 153 147 165 163 166 183 172 166 187 197 214 227
51 54 53 52 51 61 78 63 62 51 60 61 63 57 90 152 198 192 178 161 164 193 193 189 195 204 204 193 194 193 189 198 179 169 167 173 185 184 168 172 196 216 218
53 56 56 50 47 37 38 39 48 42 42 47 44 33 205 226 239 210 180 179 199 213 219 206 208 211 208 212 214 213 208 204 200 193 184 183 185 196 177 186 202 197 209